Accueil
METAR-TAF:

METAR-TAF

Aéroports :

Aupaluk, Québec, Canada

latitude: 59-17-48N, longitude: 069-35-59W, altitude: 35 m

Observation

Le bulletin a été fait il y a 1 heure et 9 minutes, à 20:00 UTC
Vent 8 kt de ouest/nord-ouest
Température -8°C
Humidité 73%
Pression 1021 hPa
Visibilité: 24.1 km
Nuages fragmentés à une hauteur de 4600 ft

METAR: CYLA 222000Z 30008KT 15SM BKN046 M08/M12 A3016 RMK SC5 SLP217

Heure: 17:09 (21:09 UTC)


TAF: absent

Observations et prévisions météorologiques de plus de 4000 aéroports (messages METAR et TAF).

Les stations disponibles sont représentées par des disques jaunes et rouges sur la carte.

Passer la souris dessus pour voir le nom de la station.

Cliquer dessus pour voir les observations et prévisions météorologiques.

Pour changer de carte: cliquez sur les boutons verts avec une croix noire pour zoomer, sur le bouton vert avec un tiret pour effectuer un zoom arrière, ou sur les flèches vertes pour les cartes adjacentes.


METAR-TAF: